This is the latest recevied weather packets stored in our database for station/object KC2BRB-1. If no packets are shown the sender has not sent any weather packets the latest 10 day(s).
| Time | Temp. | Humidity | Pressure | Rain* | Wind** | Luminosity | Snow |
|---|---|---|---|---|---|---|---|
| 1778072529 | 22.78° C | 88% | 1014.6 hPa | 0 mm | - | - | - |
| 1778072229 | 22.78° C | 88% | 1014.6 hPa | 0 mm | - | - | - |
| 1778071929 | 21.67° C | 89% | 1014.6 hPa | 0 mm | - | - | - |
| 1778071329 | 21.11° C | 90% | 1014.5 hPa | 0 mm | - | - | - |
| 1778071029 | 21.11° C | 90% | 1014.5 hPa | 0 mm | - | - | - |
| 1778070729 | 21.11° C | 90% | 1014.3 hPa | 0 mm | - | - | - |
| 1778070129 | 20.56° C | 90% | 1014.3 hPa | 0 mm | - | - | - |
| 1778069829 | 20.56° C | 90% | 1014.3 hPa | 0 mm | - | - | - |
| 1778069229 | 20° C | 90% | 1014.3 hPa | 0 mm | - | - | - |
| 1778068929 | 20° C | 91% | 1014.1 hPa | 0 mm | - | - | - |
| 1778068629 | 20° C | 91% | 1014.1 hPa | 0 mm | - | - | - |
| 1778068329 | 19.44° C | 91% | 1014.1 hPa | 0 mm | - | - | - |
| 1778067729 | 19.44° C | 91% | 1014.2 hPa | 0 mm | - | - | - |
| 1778067429 | 19.44° C | 91% | 1014.2 hPa | 0 mm | - | - | - |
| 1778067129 | 19.44° C | 91% | 1014.1 hPa | 0 mm | - | - | - |
| 1778066830 | 19.44° C | 91% | 1014.1 hPa | 0 mm | - | - | - |
| 1778066529 | 18.89° C | 91% | 1014.1 hPa | 0 mm | - | - | - |
| 1778066230 | 18.89° C | 91% | 1014.1 hPa | 0 mm | - | - | - |
| 1778065929 | 18.89° C | 91% | 1014 hPa | 0 mm | - | - | - |
| 1778065630 | 18.89° C | 91% | 1014 hPa | 0 mm | - | - | - |
| 1778065330 | 18.89° C | 91% | 1013.5 hPa | 0 mm | - | - | - |
| 1778064242 | 18.33° C | 91% | 1013.5 hPa | 0 mm | - | - | - |
| 1778064131 | 18.89° C | 91% | 1013.5 hPa | 0 mm | - | - | - |
| 1778063829 | 18.89° C | 91% | 1013.5 hPa | 0 mm | - | - | - |
| 1778063530 | 18.33° C | 91% | 1013.4 hPa | 0 mm | - | - | - |
* Rain latest hour (hover to see other rain measurements)
** Current wind speed in m/s (hover to see current wind gust speed)